This is the latest recevied weather packets stored in our database for station/object F5ZQC-13. If no packets are shown the sender has not sent any weather packets the latest 10 day(s).
| Time | Temp. | Humidity | Pressure | Rain* | Wind** | Luminosity | Snow |
|---|---|---|---|---|---|---|---|
| 1778226636 | 27.22° C | 25% | 1009.4 hPa | 0 mm | - | - | - |
| 1778226148 | 26.67° C | 27% | 1009.5 hPa | 0 mm | - | - | - |
| 1778226025 | 26.67° C | 26% | 1009.5 hPa | 0 mm | - | - | - |
| 1778225659 | 26.11° C | 25% | 1009.5 hPa | 0 mm | - | - | - |
| 1778225047 | 25.56° C | 28% | 1009.4 hPa | 0 mm | - | - | - |
| 1778224865 | 24.44° C | 29% | 1009.4 hPa | 0 mm | - | - | - |
| 1778224865 | 25° C | 28% | 1009.4 hPa | 0 mm | - | - | - |
| 1778224864 | 23.89° C | 30% | 1009.3 hPa | 0 mm | - | - | - |
| 1778224802 | 25° C | 28% | 1009.4 hPa | 0 mm | - | - | - |
| 1778224685 | 25° C | 29% | 1009.4 hPa | 0 mm | - | - | - |
| 1778224315 | 24.44° C | 29% | 1009.4 hPa | 0 mm | - | - | - |
| 1778223946 | 23.89° C | 30% | 1009.3 hPa | 0 mm | - | - | - |
| 1778223338 | 22.78° C | 32% | 1009.4 hPa | 0 mm | - | - | - |
| 1778223090 | 22.22° C | 33% | 1009.4 hPa | 0 mm | - | - | - |
| 1778222968 | 22.22° C | 32% | 1009.3 hPa | 0 mm | - | - | - |
| 1778222850 | 22.22° C | 33% | 1009.5 hPa | 0 mm | - | - | - |
| 1778222723 | 21.67° C | 33% | 1009.4 hPa | 0 mm | - | - | - |
| 1778222601 | 21.67° C | 33% | 1009.5 hPa | 0 mm | - | - | - |
| 1778222249 | 21.11° C | 35% | 1009.4 hPa | 0 mm | - | - | - |
| 1778222238 | 20° C | 34% | 1009.4 hPa | 0 mm | - | - | - |
| 1778222238 | 20.56° C | 35% | 1009.3 hPa | 0 mm | - | - | - |
| 1778222118 | 20.56° C | 35% | 1009.4 hPa | 0 mm | - | - | - |
| 1778221990 | 20.56° C | 35% | 1009.3 hPa | 0 mm | - | - | - |
| 1778221745 | 20° C | 34% | 1009.4 hPa | 0 mm | - | - | - |
| 1778221500 | 19.44° C | 36% | 1009.4 hPa | 0 mm | - | - | - |
* Rain since midnight (hover to see other rain measurements)
** Current wind speed in m/s (hover to see current wind gust speed)